Flag for USA Past Weather in Furnace Creek (Death Valley), California, USA — Yesterday and Last 2 Weeks

Now
65 °F

Clear.


Feels Like: 65 °F
Forecast: 65 / 83 °F
Wind: 25 mph from Northeast

Location: Desert Rock Airport

Current Time: Apr 27, 2017 at 9:53:01 pm

Latest Report: Apr 27, 2017 at 8:55 pm


Visibility: 10 mi

Pressure: 29.65 "Hg

Humidity: 10%

Dew Point: 7 °F

Location of Furnace Creek (Death Valley)Location

Past Weather in Furnace Creek (Death Valley) — Graph

°F

Furnace Creek (Death Valley) Temperature Yesterday

Maximum temperature yesterday: 80 °F (at 3:55 pm)
Minimum temperature yesterday: 47 °F (at 5:55 am)
Average temperature yesterday: 66 °F

High & Low Weather Summary for the Past Weeks

 TemperatureHumidityPressure
High85 °F (Apr 23, 3:55 pm)61% (Apr 19, 4:55 am)30.10 "Hg (Apr 19, 4:55 am)
Low39 °F (Apr 14, 5:55 am)5% (Apr 16, 1:55 pm)29.54 "Hg (Apr 23, 5:55 pm)
Average66 °F23%29.80 "Hg
* Reported Apr 12 7:55 pm — Apr 27 7:55 pm, Furnace Creek (Death Valley), Weather by CustomWeather, © 2017

Note: Actual official high and low records may vary slightly from our data, if they occured in-between our weather recording intervals... More about our weather records

Advertising

Furnace Creek (Death Valley) Weather History for the Previous 24 Hours

Scroll right to see more
 ConditionsComfort  
Time TempWeatherWind HumidityBarometerVisibility
7:55 pm
Thu, Apr 27
67 °FClear.20 mph13%29.62 "Hg10 mi
6:55 pm72 °FSunny.26 mph13%29.59 "Hg10 mi
5:55 pm77 °FSunny.16 mph12%29.59 "Hg10 mi
4:55 pm78 °FSunny.17 mph13%29.58 "Hg10 mi
3:55 pm79 °FSunny.18 mph12%29.59 "Hg10 mi
2:55 pm79 °FSunny.17 mph12%29.63 "Hg10 mi
1:55 pm77 °FSunny.N/A14%29.64 "Hg10 mi
12:55 pm76 °FSunny.12 mph16%29.66 "Hg10 mi
11:55 am76 °FSunny.18 mph15%29.70 "Hg10 mi
10:55 am73 °FSunny.9 mph18%29.69 "Hg10 mi
9:55 am70 °FSunny.10 mph25%29.70 "Hg10 mi
8:55 am67 °FSunny.14 mph23%29.71 "Hg10 mi
8:14 am66 °FSunny.15 mph24%29.83 "Hg10 mi
7:55 am66 °FSunny.14 mph24%29.71 "Hg10 mi
6:55 am60 °FSunny.6 mph31%29.72 "Hg10 mi
5:55 am59 °FSunny.7 mph31%29.70 "Hg10 mi
4:55 am59 °FClear.10 mph28%29.69 "Hg10 mi
3:55 am58 °FClear.7 mph32%29.67 "Hg10 mi
2:55 am61 °FClear.10 mph29%29.65 "Hg10 mi
1:55 am62 °FClear.10 mph27%29.64 "Hg10 mi
12:55 am65 °FClear.16 mph24%29.64 "Hg10 mi
11:55 pm
Wed, Apr 26
62 °FClear.7 mph30%29.64 "Hg10 mi
10:55 pm70 °FClear.18 mph28%29.62 "Hg10 mi
9:55 pm71 °FClear.13 mph26%29.59 "Hg10 mi
Weather by CustomWeather, © 2017

See weather overviewHow to use our weather pages